www.pogodaiklimat.ru

Погода и климат >> Архив погоды >> Германия >> Гамбург


АРХИВ ПОГОДЫ в Гамбурге

Время (UTC), дата Ветер
(напр.,м/с)
 
Видим.   Явления Облачность Т
(С)
Тd
(С)
f
(%)
Тe
(С)
Тes
(С)
Комфортность P
(гПа)
Po
(гПа)
Тmin
(С)
Tmax
(С)
R
(мм)
R24
(мм)
S
(см)
10 10.08 З 6 40 км в посл. час ливневой дождь 8/8 1020 м
[Cu Sc]
+22.2 +14.5 62 +26 +27 душно 1007.3 1005.6
11 10.08 ЮЗ 8 40 км в посл. час ливневой дождь 9/9 1140 м
[Cu Sc]
+22.8 +13.9 57 +26 +26 жарко 1007.4 1005.7
12 10.08 ЮЗ 9 40 км {ливн. осадки} 8/3 1200 м
[Cu med, cong Ac trans Ci fib]
+22.8 +13.7 56 +26 +27 жарко 1007.7 1006.0 0.0
13 10.08 ЮЗ 6 30 км в посл. час ливневой дождь 9/9 1260 м
[Cb cap]
+21.7 +13.9 61 +25 +25 комфорт 1008.0 1006.3
14 10.08 ЮЗ 6 30 км осадки на расстоянии 9/5 1260 м
[Cb cap Ac trans]
+23.0 +13.7 56 +26 +27 жарко 1008.1 1006.4
15 10.08 ЮЗ 5 40 км в посл. час ливневой дождь 6/1 900 м
[Cb cap Ac trans]
+19.6 +15.5 77 +21 +23 комфорт 1009.3 1007.5 1
16 10.08 ЮЗ 8 30 км в посл. час ливневой дождь 6/3 360 м
[Cb cap Ac trans]
+20.9 +13.5 63 +23 +23 комфорт 1009.2 1007.5
17 10.08 ЮЗ 8 45 км 3/3 900 м
[Cu Sc Ci fib]
+21.1 +14.2 65 +24 +24 комфорт 1008.9 1007.2
18 10.08 ЮЗ 7 30 км в посл. час ливневой дождь 8/8 600 м
[Cb cap Ci fib]
+19.4 +14.4 73 +20 +20 по сезону 1009.8 1008.0 +18.5 +23.9 1
19 10.08 ЮЗ 5 45 км 1/0
[Ac trans Ci fib]
+18.4 +13.6 74 +19 +19 тепло 1010.6 1008.8
20 10.08 ЮЗ 4 40 км 1/0
[Ac trans Ci fib]
+17.3 +13.6 79 +17 +17 по сезону 1011.0 1009.2
21 10.08 ЮЗ 5 40 км 1/0
[Ac trans Ci fib]
+18.9 +12.8 68 +20 +20 тепло 1011.1 1009.3
22 10.08 ЮЗ 4 40 км 1/0
[Ac trans]
+17.1 +12.4 74 +17 +17 тепло 1011.2 1009.4
23 10.08 ЮЗ 6 40 км 1/0
[Ac trans]
+18.7 +11.0 61 +19 +19 тепло 1011.5 1009.7
00 11.08 ЮЗ 6 40 км 1/0
[Ac trans]
+16.9 +10.8 67 +16 +16 по сезону 1011.5 1009.7
01 11.08 ЮЗ 6-8
{10}
40 км ясно +17.4 +9.5 60 +17 +17 тепло 1011.6 1009.8
02 11.08 ЮЗ 5-8
{8}
45 км ясно +15.7 +9.5 67 +15 +15 по сезону 1011.9 1010.1
03 11.08 ЮЗ 5 45 км ясно +16.0 +8.8 62 +15 +15 по сезону 1011.9 1010.1
04 11.08 ЮЗ 5 40 км 1/0
[Ac trans Ci fib]
+13.8 +8.8 72 +12 +12 по сезону 1012.2 1010.4
05 11.08 ЮЗ 5 40 км 5/0
[Ac trans Ci sp]
+15.7 +9.2 65 +15 +15 по сезону 1012.8 1011.0
06 11.08 ЮЗ 7 40 км 5/0
[Ci sp]
+16.6 +9.6 63 +15 +16 по сезону 1012.9 1011.1 +13.8 +19.5
07 11.08 ЮЗ 9 40 км 5/0
[Ci sp]
+18.5 +10.2 58 +18 +18 по сезону 1013.2 1011.4
08 11.08 ЮЗ 8 40 км 5/0
[Ci sp]
+19.2 +10.7 58 +19 +21 по сезону 1013.3 1011.5
09 11.08 ЮЗ 8 40 км 5/1 600 м
[Cu hum Ac trans Ci sp]
+20.0 +10.5 54 +21 +22 комфорт 1013.6 1011.8
10 11.08 ЮЗ 10 45 км 3/1 1500 м
[Cu hum Ci sp]
+21.7 +8.8 44 +23 +24 комфорт 1013.3 1011.5
11 11.08 ЮЗ 10 45 км 3/1 1500 м
[Cu hum Ci fib]
+22.5 +8.5 41 +24 +24 комфорт 1013.0 1011.3
12 11.08 ЮЗ 8 45 км 5/3 1500 м
[Cu hum Ci sp]
+23.1 +9.3 41 +25 +26 комфорт 1013.1 1011.4
13 11.08 ЮЗ 6 45 км 9/1 1500 м
[Cu hum Ac trans Ci sp]
+23.2 +9.0 40 +25 +27 комфорт 1012.9 1011.2
14 11.08 З 7 45 км 8/1 1500 м
[Cu hum Ac trans Ci fib]
+23.3 +8.5 39 +25 +26 комфорт 1012.8 1011.1
15 11.08 З 4 45 км 9/1 1500 м
[Cu hum Ac trans Ci fib]
+23.0 +9.0 41 +24 +27 комфорт 1012.6 1010.9
16 11.08 ЮЗ 5 45 км 9/1 1500 м
[Cu hum Ac As]
+22.2 +8.6 42 +24 +24 комфорт 1012.4 1010.7
17 11.08 ЮЗ 5 45 км 9/1 1500 м
[Cu hum Ac As]
+22.4 +9.6 44 +24 +24 комфорт 1012.2 1010.5
18 11.08 ЮЗ 2 45 км 9/1 1500 м
[Cu hum Ac trans Ci fib]
+21.6 +9.9 47 +23 +23 комфорт 1011.8 1010.1 +16.6 +24.0
19 11.08 ЮЗ 1 50 км 9/0
[Ac trans]
+19.4 +12.2 63 +22 +22 комфорт 1011.9 1010.1
20 11.08 ЮЗ 1 45 км 9/8 480 м
[Cu Sc Ac trans]
+18.5 +11.5 64 +20 +20 тепло 1012.5 1010.7
21 11.08 ЮЗ 2 40 км 9/5 2000 м
[Sc Ac trans]
+18.6 +11.8 65 +20 +20 тепло 1012.6 1010.8
22 11.08 ЮЗ 2 40 км 9/0
[Ac trans]
+18.9 +10.8 59 +20 +20 тепло 1012.6 1010.8
23 11.08 ЮЗ 2 40 км 9/3 1500 м
[Sc Ac As]
+18.1 +11.0 63 +19 +19 тепло 1012.7 1010.9
00 12.08 З 3 40 км 9/9 1500 м
[Sc]
+18.2 +10.9 62 +19 +19 тепло 1012.7 1010.9
01 12.08 З 2 40 км 9/3 1500 м
[Sc Ac As]
+17.8 +11.1 65 +18 +18 тепло 1012.6 1010.8
02 12.08 ЮЗ 1 40 км 9/1 2000 м
[Sc Ac As]
+16.5 +11.6 73 +17 +17 тепло 1012.6 1010.8
03 12.08 ЮЗ 4 40 км 9/1 2000 м
[Sc Ac As]
+16.9 +11.2 69 +16 +16 по сезону 1012.8 1011.0
04 12.08 ЮЗ 3 40 км 1/0
[Ac trans Ci fib]
+15.0 +10.6 75 +14 +14 по сезону 1012.7 1010.9
05 12.08 ЮЗ 5 40 км 1/0
[Ac trans]
+15.9 +10.4 70 +15 +15 по сезону 1012.8 1011.0
06 12.08 ЮЗ 6 40 км 1/0
[Ac trans]
+16.6 +10.6 68 +16 +16 по сезону 1012.9 1011.1 +14.4 +21.6
07 12.08 ЮЗ 6 40 км 1/1 840 м
[Cu hum]
+17.8 +11.5 67 +17 +19 по сезону 1013.2 1011.4
08 12.08 ЮЗ 7 40 км 1/1 840 м
[Cu hum]
+18.9 +11.7 63 +19 +21 по сезону 1013.3 1011.5
09 12.08 ЮЗ 7 40 км 3/3 600 м
[Cu hum]
+19.8 +11.7 60 +21 +23 комфорт 1013.3 1011.5
10 12.08 ЮЗ 7 40 км 4/4 1080 м
[Cu hum]
+20.7 +12.0 57 +22 +24 комфорт 1013.1 1011.3
11 12.08 ЮЗ 5 40 км 5/5 1140 м
[Cu med, cong]
+21.8 +11.8 53 +24 +27 комфорт 1013.1 1011.4
12 12.08 З 5 40 км в посл. час ливневой дождь 3/1 1200 м
[Cu hum Ci fib]
+21.3 +11.7 54 +23 +29 комфорт 1013.2 1011.4 0.0
13 12.08 ЮЗ 5 40 км 6/6 1350 м
[Cu med, cong]
+21.7 +11.1 51 +24 +26 комфорт 1012.8 1011.1
14 12.08 ЮЗ 6 40 км 5/5 1410 м
[Cb calv]
+22.3 +10.0 46 +24 +26 комфорт 1012.2 1010.5
15 12.08 СЗ 6 40 км 5/5 1410 м
[Cb calv]
+21.1 +12.5 58 +23 +24 комфорт 1012.7 1010.9
16 12.08 СЗ 6 45 км в посл. час гроза 4/4 600 м
[Cb cap]
+18.3 +13.4 73 +18 +19 прохладно 1012.8 1011.0
17 12.08 СЗ 2 50 км 1/1 1350 м
[Cb cap]
+18.6 +12.3 67 +20 +21 по сезону 1012.3 1010.5
18 12.08 СЗ 2 50 км {гроза} 3/1 1500 м
[Cu hum Ac trans Ci fib]
+17.9 +13.0 73 +18 +19 прохладно 1012.2 1010.4 +16.6 +23.8 0.0
19 12.08 СЗ 1 45 км 6/0
[Ac trans Ci fib]
+16.9 +13.5 80 +18 +18 по сезону 1012.6 1010.8
20 12.08 С 1 40 км туман на расстоянии 8/0
[Ac trans Ci fib]
+15.8 +13.4 86 +16 +16 по сезону 1013.0 1011.2
21 12.08 З 2 30 км 10/4 2000 м
[Sc Ac As]
+16.7 +13.2 80 +17 +17 по сезону 1013.4 1011.6 0.0
22 12.08 ЮЗ 5 20 км слаб. ливневой дождь 10/8 660 м
[Cu Sc As op]
+16.2 +13.5 84 +15 +15 тепло 1013.4 1011.6
23 12.08 ЮЗ 2 12 км слаб. дождь 10/6 300 м
[Cu Sc As op]
+15.1 +13.8 92 +15 +15 по сезону 1013.3 1011.5
00 13.08 З 2 9000 м слаб. дождь 10/9 300 м
[Cu Sc]
+14.9 +13.9 94 +15 +15 по сезону 1013.1 1011.3 1
01 13.08 ЮЗ 3 20 км в посл. час дождь 9/9 1500 м
[Sc]
+14.2 +13.1 93 +13 +13 по сезону 1012.6 1010.8
02 13.08 ЮЗ 3 20 км 9/9 540 м
[Cu Sc]
+14.1 +12.6 91 +13 +13 по сезону 1012.8 1011.0
03 13.08 ЮЗ 3 7000 м дымка 10/9 210 м
[St]
+14.0 +12.7 92 +13 +13 по сезону 1012.6 1010.8 0.1
04 13.08 ЮЗ 4 8000 м 10/9 240 м
[Sc]
+13.9 +12.4 91 +12 +12 по сезону 1012.6 1010.8
05 13.08 ЮЗ 5 7000 м дымка 9/9 300 м
[St]
+13.7 +12.2 91 +12 +12 прохладно 1012.7 1010.9
06 13.08 ЮЗ 4 7000 м дымка {дождь} 9/9 200 м
[St]
+14.1 +12.3 89 +13 +13 прохладно 1012.9 1011.1 +13.6 +17.9 1
07 13.08 ЮЗ 4 8000 м 9/6 240 м
[St Ac trans]
+14.2 +11.7 85 +13 +13 холодно 1013.2 1011.4
08 13.08 ЮЗ 4 11 км слаб. ливневой дождь 9/9 300 м
[Cu Sc]
+14.8 +11.8 82 +14 +14 прохладно 1013.3 1011.5
09 13.08 ЮЗ 5 15 км в посл. час ливневой дождь 9/9 300 м
[Cu Sc]
+15.2 +11.5 79 +14 +14 прохладно 1013.6 1011.8 0.0
10 13.08 ЮЗ 6 12 км слаб. ливневой дождь 10/9 480 м
[Cu Sc]
+15.5 +11.1 75 +14 +14 очень
холодно
1013.7 1011.9
11 13.08 З 7 15 км слаб. ливневой дождь 9/9 360 м
[Cb cap]
+13.6 +10.1 79 +11 +12 очень
холодно
1014.2 1012.4
12 13.08 З 6 40 км в посл. час ливневой дождь 9/6 360 м
[Cb calv Ac trans]
+16.1 +11.9 76 +15 +16 холодно 1014.4 1012.6 0.4
13 13.08 З 5 50 км 8/8 720 м
[Cu Sc]
+16.6 +10.4 67 +16 +17 холодно 1014.7 1012.9
14 13.08 З 5 50 км 6/3 900 м
[Cu med, cong Ac trans]
+17.5 +9.1 58 +17 +19 холодно 1014.7 1012.9
15 13.08 З 6 50 км 6/4 1110 м
[Cu med, cong Ac trans]
+18.1 +7.4 50 +18 +19 прохладно 1014.8 1013.0
16 13.08 З 4 50 км 6/3 1200 м
[Cu med, cong Ci ing]
+17.6 +8.2 54 +17 +19 прохладно 1014.9 1013.1
17 13.08 З 4 50 км 5/4 1440 м
[Cu Sc Ci sp]
+17.2 +5.7 47 +17 +17 прохладно 1015.3 1013.5
18 13.08 З 5 50 км 6/1 1000 м
[Cu med, cong Ac trans Ci sp]
+16.2 +7.5 56 +15 +15 холодно 1015.7 1013.9 +13.5 +18.8 0.4
19 13.08 З 3 50 км 8/4 1200 м
[Cu Sc Ci sp]
+15.0 +8.6 66 +14 +14 прохладно 1016.0 1014.2
20 13.08 ЮЗ 4 50 км 4/1 1200 м
[Cu med, cong Ac trans Ci sp]
+13.2 +8.8 75 +12 +12 холодно 1016.0 1014.2
21 13.08 ЮЗ 2 45 км 9/1 2000 м
[Sc Ac trans]
+13.6 +9.1 74 +13 +13 прохладно 1016.1 1014.3
22 13.08 ЮЗ 2 40 км 1/0
[Ac trans]
+12.2 +9.3 82 +11 +11 по сезону 1016.0 1014.2
23 13.08 ЮЗ 3 40 км 1/0
[Ac trans]
+11.7 +9.3 85 +10 +10 прохладно 1016.1 1014.3
00 14.08 ЮЗ 3 35 км 1/0
[Ac trans]
+11.1 +9.1 87 +9 +9 холодно 1016.1 1014.3
01 14.08 ЮЗ 3 25 км 1/1 1500 м
[Sc]
+10.6 +9.2 91 +8 +8 холодно 1015.9 1014.1
02 14.08 ЮЗ 4 20 км 1/0
[Ac trans]
+10.9 +9.1 89 +8 +8 холодно 1015.7 1013.9
03 14.08 ЮЗ 3 11 км 4/4 750 м
[Sc]
+10.3 +9.1 92 +8 +8 холодно 1015.8 1014.0
04 14.08 ЮЗ 3 7000 м дымка 5/4 180 м
[St Ac trans]
+10.0 +9.0 93 +8 +8 холодно 1015.9 1014.1
05 14.08 ЮЗ 3 7000 м дымка 8/6 180 м
[St Ac trans]
+10.6 +9.5 93 +8 +9 холодно 1016.1 1014.3
06 14.08 ЮЗ 4 9000 м 4/1 200 м
[Cu hum Ac trans]
+11.9 +9.9 88 +10 +11 холодно 1016.4 1014.6 +9.9 +16.3
07 14.08 ЮЗ 4 15 км 4/1 480 м
[Cu hum Ac trans]
+13.4 +9.8 79 +12 +14 холодно 1016.3 1014.5
08 14.08 ЮЗ 5 25 км 1/1 720 м
[Cu hum]
+15.7 +10.4 71 +15 +18 прохладно 1016.5 1014.7
09 14.08 З 6 30 км 3/3 600 м
[Cu hum]
+17.4 +9.9 61 +17 +19 по сезону 1016.6 1014.8
10 14.08 ЮЗ 6 40 км 6/6 1050 м
[Cu med, cong]
+18.4 +8.6 53 +18 +20 холодно 1016.5 1014.7
11 14.08 З 5 45 км 6/5 1140 м
[Cu med, cong Ac trans]
+17.7 +8.2 54 +17 +20 холодно 1016.3 1014.5
12 14.08 З 6 45 км 8/8 1410 м
[Cu Sc]
+18.3 +7.7 50 +18 +19 прохладно 1016.4 1014.6
13 14.08 З 6 45 км 8/8 1440 м
[Cu Sc]
+20.1 +6.1 40 +21 +21 комфорт 1016.1 1014.3
14 14.08 З 5 45 км 6/6 1500 м
[Cu Sc]
+20.2 +7.3 43 +21 +23 комфорт 1015.8 1014.0
15 14.08 З 4 45 км 3/3 1500 м
[Cu med, cong]
+20.0 +6.5 41 +21 +24 комфорт 1015.6 1013.8
16 14.08 З 3 45 км 5/1 1500 м
[Cu med, cong Ac und]
+20.0 +6.7 42 +21 +23 комфорт 1015.4 1013.6
17 14.08 З 2 45 км 6/1 1500 м
[Cu med, cong Ac trans]
+19.9 +7.8 46 +21 +22 комфорт 1015.2 1013.4
18 14.08 С 2 45 км 9/9 1500 м
[Cu Sc]
+18.6 +8.9 53 +20 +20 по сезону 1015.1 1013.3 +11.8 +21.2
19 14.08 СВ 3 45 км 9/1 1500 м
[Sc Ac trans]
+17.8 +9.3 57 +18 +18 по сезону 1014.8 1013.0
20 14.08 СВ 2 40 км 10/1 1500 м
[Sc Ac trans]
+16.8 +9.6 62 +17 +17 по сезону 1014.8 1013.0
21 14.08 В 3 40 км 9/0
[Ac trans]
+16.4 +9.8 65 +16 +16 по сезону 1014.4 1012.6
22 14.08 В 3 40 км 10/0
[Ac trans]
+16.6 +9.2 62 +16 +16 тепло 1014.0 1012.2
23 14.08 ЮВ 3 40 км 10/0
[Ac trans]
+16.5 +8.2 58 +16 +16 тепло 1013.5 1011.7
00 15.08 ЮВ 4 40 км 10/1 1500 м
[Sc Ac As]
+16.8 +7.5 54 +16 +16 по сезону 1013.0 1011.2
01 15.08 ЮВ 4 40 км в посл. час дождь 10/1 1320 м
[Sc Ac As]
+15.8 +8.2 61 +15 +15 тепло 1012.3 1010.5
02 15.08 ЮВ 3 40 км в посл. час дождь 10/9 1300 м
[Sc]
+15.5 +8.3 62 +15 +15 по сезону 1011.4 1009.6
03 15.08 Ю 6 30 км слаб. дождь 10/9 1350 м
[Sc]
+15.3 +9.3 67 +14 +14 по сезону 1011.1 1009.3 0.0
04 15.08 Ю 4 20 км слаб. дождь 10/4 1500 м
[Sc Ac As]
+13.4 +11.0 85 +12 +12 по сезону 1010.6 1008.8
05 15.08 ЮВ 4 2800 м дождь 10/5 360 м
[Frnb As op]
+13.1 +11.9 92 +11 +11 прохладно 1010.0 1008.2
06 15.08 ЮВ 5 8000 м дождь 10/9 100 м
[Sc]
+13.4 +12.2 92 +11 +11 прохладно 1009.2 1007.4 +13.0 +18.5 4
07 15.08 ЮВ 6 15 км в посл. час дождь {морось} 10/9 270 м
[Sc]
+14.3 +12.8 91 +12 +12 холодно 1008.6 1006.8
08 15.08 Ю 5 15 км слаб. ливневой дождь {морось} 10/9 270 м
[Cu Sc]
+14.9 +13.6 92 +13 +14 холодно 1008.3 1006.5
09 15.08 Ю 5 6000 м слаб. ливневой дождь 10/9 300 м
[Cu Sc]
+15.8 +13.4 86 +15 +15 прохладно 1008.0 1006.2 1
10 15.08 Ю 5 10 км слаб. ливневой дождь 10/9 210 м
[Frnb]
+15.7 +14.1 90 +14 +15 очень
холодно
1007.8 1006.0
11 15.08 Ю 6 20 км в посл. час ливневой дождь 9/9 270 м
[Sc]
+17.0 +14.8 87 +16 +17 холодно 1007.5 1005.7
12 15.08 Ю 5 30 км {ливн. осадки, дождь} 9/9 400 м
[Cu Sc]
+18.1 +14.4 79 +18 +19 прохладно 1007.3 1005.5 1
13 15.08 ЮЗ 5 5000 м дождь 10/9 300 м
[Sc]
+17.4 +15.7 90 +17 +17 холодно 1007.4 1005.6
14 15.08 ЮЗ 7 20 км в посл. час дождь 9/9 300 м
[Cu Sc]
+18.9 +15.7 82 +19 +20 прохладно 1007.3 1005.5
15 15.08 ЮЗ 5 20 км в посл. час ливневой дождь 9/9 480 м
[Cb cap]
+18.7 +15.9 84 +19 +20 по сезону 1007.6 1005.8 0.5
16 15.08 ЮЗ 4 12 км в посл. час гроза {ливн. осадки} 9/9 330 м
[Cb cap]
+18.4 +16.7 90 +19 +19 прохладно 1007.9 1006.1
17 15.08 З 3 9000 м слаб. ливневой дождь 9/9 450 м
[Cb cap]
+18.3 +16.2 88 +19 +19 по сезону 1008.5 1006.7
18 15.08 З 2 25 км слаб. ливневой дождь {гроза} 9/6 300 м
[Cb cap Ac trans]
+17.8 +16.2 90 +18 +18 прохладно 1009.0 1007.2 +13.4 +19.2 7
19 15.08 З 2 25 км в посл. час ливневой дождь 8/6 1050 м
[Cu Sc Ac trans Ci fib]
+16.9 +15.1 89 +17 +17 по сезону 1009.8 1008.0
20 15.08 ЮЗ 3 20 км в посл. час ливневой дождь 9/1 630 м
[Cu med, cong Ac trans]
+16.1 +14.8 92 +16 +16 по сезону 1010.4 1008.6
21 15.08 ЮЗ 3 25 км в посл. час ливневой дождь 8/1 840 м
[Sc Ac trans]
+15.3 +14.4 94 +15 +15 прохладно 1010.9 1009.1 0.5
22 15.08 З 3 25 км 8/8 1500 м
[Sc]
+15.7 +14.3 91 +15 +15 тепло 1011.4 1009.6
23 15.08 ЮЗ 4 25 км в посл. час ливневой дождь 9/9 2000 м
[Sc]
+15.7 +14.1 90 +15 +15 по сезону 1011.6 1009.8
00 16.08 ЮЗ 4 25 км {ливн. осадки} 5/5 300 м
[Sc]
+15.3 +14.0 92 +14 +14 по сезону 1012.0 1010.2 0.5
01 16.08 ЮЗ 3 25 км 6/6 360 м
[Sc]
+15.2 +13.9 92 +14 +14 по сезону 1012.2 1010.4
02 16.08 ЮЗ 3 25 км 9/9 360 м
[Sc]
+15.4 +14.0 91 +15 +15 по сезону 1012.5 1010.7
03 16.08 ЮЗ 4 25 км 10/9 400 м
[Sc]
+15.4 +14.0 91 +14 +14 по сезону 1012.5 1010.7 0.0
04 16.08 ЮЗ 3 8000 м слаб. ливневой дождь 9/9 240 м
[Cb calv]
+15.3 +14.1 93 +15 +15 тепло 1013.0 1011.2
05 16.08 ЮЗ 4 12 км слаб. ливневой дождь 9/9 270 м
[Cb calv]
+15.3 +14.2 93 +14 +14 по сезону 1013.4 1011.6
06 16.08 ЮЗ 4 15 км в посл. час ливневой дождь 9/9 200 м
[Cb calv]
+15.5 +14.1 91 +14 +15 по сезону 1013.9 1012.1 +14.9 +17.9 1
07 16.08 ЮЗ 5 20 км в посл. час ливневой дождь 9/9 270 м
[St]
+15.7 +14.2 91 +14 +15 прохладно 1014.5 1012.7
08 16.08 З 5 30 км 9/9 360 м
[Sc]
+16.3 +14.2 87 +15 +16 прохладно 1015.0 1013.2
09 16.08 З 4 30 км {ливн. осадки} 8/5 300 м
[Cu med, cong Ac trans]
+17.9 +13.9 77 +18 +20 по сезону 1015.0 1013.2 0.0
10 16.08 З 4 40 км в посл. час ливневой дождь 8/8 660 м
[Cu Sc]
+18.7 +11.9 65 +19 +21 прохладно 1015.1 1013.3
11 16.08 ЮЗ 4 40 км 9/9 900 м
[Cu Sc]
+18.8 +11.9 64 +19 +20 прохладно 1015.1 1013.3
12 16.08 З 3 40 км {ливн. осадки} 9/9 900 м
[Cu Sc]
+19.0 +11.4 61 +20 +21 по сезону 1015.2 1013.4 0.0
13 16.08 З 3 40 км слаб. ливневой дождь 9/9 900 м
[Cu Sc]
+18.4 +12.2 67 +19 +20 прохладно 1015.2 1013.4
14 16.08 ЮЗ 1 40 км в посл. час ливневой дождь 8/1 960 м
[Cu med, cong As trans]
+19.1 +12.6 66 +21 +26 комфорт 1014.7 1012.9
15 16.08 ЮЗ 3 40 км {ливн. осадки} 8/4 900 м
[Cu med, cong Ci fib]
+19.9 +12.3 62 +22 +24 комфорт 1014.3 1012.5 0.0
16 16.08 ЮЗ 4 40 км 8/3 1080 м
[Cu med, cong Ac trans Ci fib]
+20.4 +11.9 58 +22 +23 комфорт 1013.8 1012.0
17 16.08 ЮЗ 4 45 км 9/6 1320 м
[Cu Sc Ac trans Ci fib]
+20.9 +11.2 54 +23 +23 комфорт 1013.4 1011.6
18 16.08 ЮЗ 4 45 км {ливн. осадки} 8/3 1000 м
[Cu Sc Ci fib]
+19.6 +9.8 53 +21 +21 комфорт 1013.3 1011.5 +15.5 +21.3 0.0
19 16.08 ЮЗ 2 35 км 9/6 1500 м
[Sc Ci]
+17.2 +12.9 76 +18 +18 тепло 1013.3 1011.5
20 16.08 ЮВ 2 30 км 9/1 1500 м
[Sc Ac und Cs]
+16.1 +11.9 76 +16 +16 по сезону 1013.0 1011.2
21 16.08 ЮВ 3 30 км 9/3 1440 м
[Sc Ac trans Cs]
+17.7 +10.4 62 +18 +18 по сезону 1012.7 1010.9
22 16.08 ЮВ 4 30 км 9/3 1500 м
[Sc Ac trans Cs]
+17.2 +10.4 64 +17 +17 тепло 1012.2 1010.4
23 16.08 ЮВ 4 30 км 9/4 2000 м
[Sc As trans Cs]
+17.3 +10.3 63 +17 +17 тепло 1011.7 1009.9
00 17.08 Ю 4 30 км слаб. дождь 10/3 1000 м
[Sc As op]
+17.4 +10.2 63 +17 +17 тепло 1010.9 1009.1 0.0
01 17.08 ЮВ 3 25 км слаб. дождь 10/3 1500 м
[Sc Ac As]
+17.0 +10.7 66 +17 +17 тепло 1010.4 1008.6
02 17.08 ЮВ 4 20 км слаб. дождь 10/5 1500 м
[Sc Ac As]
+15.7 +11.5 76 +15 +15 по сезону 1009.6 1007.8
03 17.08 ЮВ 3 25 км слаб. дождь 10/5 1200 м
[Sc Ac As]
+15.3 +11.7 79 +15 +15 по сезону 1008.9 1007.1 0.0
04 17.08 ЮВ 3 25 км слаб. дождь 10/6 1500 м
[Sc Ac As]
+15.2 +12.0 81 +15 +15 тепло 1008.9 1007.1
05 17.08 ЮВ 4 25 км слаб. дождь 10/9 840 м
[Sc]
+15.1 +12.7 86 +14 +14 по сезону 1008.3 1006.5
06 17.08 ЮВ 5 25 км слаб. дождь 10/9 600 м
[Sc]
+15.3 +13.1 87 +14 +14 по сезону 1008.4 1006.6 +15.0 +19.4 0.9
07 17.08 ЮВ 4 35 км в посл. час дождь 10/9 1380 м
[Sc]
+15.7 +13.3 86 +15 +15 прохладно 1007.6 1005.8
08 17.08 Ю 4 35 км 10/9 1020 м
[Sc]
+16.8 +13.3 80 +16 +16 по сезону 1007.8 1006.0
09 17.08 Ю 5 20 км слаб. дождь 10/9 600 м
[Cu Sc]
+17.7 +14.5 82 +17 +17 по сезону 1007.8 1006.0 0.5

 

Местоположение метеостанции Гамбург (Германия): широта 53.63 долгота 10.00 высота над уровнем моря 16 м.

В архиве по умолчанию представлена погода в Гамбурге за последнюю неделю. Архивные данные за месяц целиком и за предыдущие месяцы, начиная с января 2011 года, Вы можете получить, выбрав интересующий диапазон дат из раскрывающегося списка и нажав кнопку "Ввод!".


*Определитесь, кто Вы:
робот инопланетянин человек

Внимание! Время в таблицах - всемирное. Для получения местного времени необходимо прибавить поправку, которая равна 1 ч.

Смотрите также архив погоды в соседних городах и на ближайших метеорологических станциях:

Погода в Квикборне (Германия) (14 км)
Погода в Итцехоэ (Германия) (48 км)
Погода в Любек-Бланкензее (Германия) (51 км)
Погода в Бойценбурге (Германия) (52 км)
Погода в Бремерфёрде (Германия) (57 км)
Погода в Дёрнике (Германия) (64 км)
Погода в Солтау (Германия) (71 км)
Погода в Пельцерхакене (Германия) (76 км)
Погода в Фасберге (Германия) (80 км)
Погода в Эльперсбюттеле (Германия) (81 км)

Пояснения к столбцам:

Ветер - указаны скорость ветра в м/с - средняя за 10 мин, порывы в срок и между сроками (в фигурных скобках) и направление, откуда дует ветер: С - северный, СВ - северо-восточный, В - восточный, ЮВ - юго-восточный, Ю - южный, ЮЗ - юго-западный, З - западный, СЗ - северо-западный.
Видимость - горизонтальная дальность видимости в метрах или километрах. При видимости от 1 до 10 км при отсутствии осадков обычно наблюдается дымка, при ухудшении видимости до 1 км и менее - туман. В сухую погоду видимость может ухудшаться дымом, пылью или мглою.
Явления - указаны атмосферные явления, наблюдавшиеся в срок или в последний час перед сроком; фигурными скобками обозначены явления, наблюдавшиеся между сроками (за 1-3 часа до срока); квадратными скобками обозначены град или гололедные отложения с указанием их диаметра в мм.
Облачность - указаны через наклонную черту общая и нижняя облачность в баллах и высота нижней границы облаков в метрах; квадратными скобками обозначены формы облаков: Ci - перистые, Cs - перисто-слоистые, Cc - перисто-кучевые, Ac - высококучевые, As - высокослоистые, Sc - слоисто-кучевые, Ns - слоисто-дождевые, Cu - кучевые, Cb - кучево-дождевые. Подробнее классификацию облаков см. в Атласе облаков (PDF).
T - Температура воздуха - температура, измеренная на высоте 2 м над землей.
Td - Температура точки росы - температура, при понижении до которой содержащийся в воздухе водяной пар достигнет насыщения.
f - Относительная влажность воздуха - влажноcть воздуха, измеренная на высоте 2 м над землей.
Te - Эффективная температура - температура, которую ощущает одетый по сезону человек в тени. Характеристика душности погоды. При расчете учитывается влияние влажности воздуха и скорости ветра на теплоощущения человека.
Tes - Эффективная температура на солнце - температура, которую ощущает человек, с поправкой на солнечный нагрев. Характеристика знойности погоды. Зависит от высоты солнца над горизонтом, облачности и скорости ветра. Ночью, в пасмурную погоду, а также при ветре 12 м/с и более поправка равна нулю.
P - Атмосферное давление - приведенное к уровню моря атмосферное давление.
Po - Атмосферное давление - измеренное на уровне метеостанции атмосферное давление.
Tmin - Минимальная температура - минимум температуры воздуха на высоте 2 м над землей.
Tmax - Максимальная температура - максимум температуры воздуха на высоте 2 м над землей.
R - Количество осадков - Количество выпавших осадков за период времени, мм. При наведении курсора мыши на число - период времени, за который выпало указанное количество осадков.
R24 - Количество осадков - Количество выпавших осадков за 24 часа, мм.
S - Снежный покров - Высота снежного покрова, см. При наведении курсора мыши на число - состояние снежного покрова и степень покрытия местности в баллах.